Regional Weather Roundup
Issued by NWS

Home | Current Version | Previous Version | Text Only | Print | Product List | Glossary Off
Versions: 1 2 3 4 5 6 7 8 9 10 11 12 13 14 15 16 17 18 19 20 21 22 23 24 25 26 27 28 29 30 31 32 33 34 35 36 37 38 39 40 41 42 43 44 45 46 47 48 49 50

000
ASUS43 KOAX 050910
RWRNE

WEATHER ROUNDUP FOR NEBRASKA
NATIONAL WEATHER SERVICE OMAHA NE
400 AM CDT TUE MAY 05 2015

NOTES: SATELLITE DATA IS BEING USED TO AUGMENT CLOUD COVER ABOVE
       12000 FEET.
       "FAIR" INDICATES FEW OR NO CLOUDS BELOW 12,000 FEET WITH NO
       SIGNIFICANT WEATHER AND/OR OBSTRUCTIONS TO VISIBILITY.

  * THESE STATIONS DO NOT REPORT WEATHER SUCH AS RAIN...SNOW OR FOG.

NEZ001>004-019>022-054>056-051000-
NEBRASKA PANHANDLE

CITY           SKY/WX    TMP DP  RH WIND       PRES   REMARKS
SCOTTSBLUFF    CLOUDY    48  44  86 SE8       30.05F
ALLIANCE       CLOUDY    49  43  80 SE9       30.05F
CHADRON        CLOUDY    45  39  79 N3        30.04F
KIMBALL        CLOUDY    44  43  99 SE6       30.04S FOG
SIDNEY         FOG       45  44  97 CALM      30.06S VSB 1/2
$$

NEZ057>060-069>072-079>082-051000-
SOUTHWEST NEBRASKA

CITY           SKY/WX    TMP DP  RH WIND       PRES   REMARKS
NORTH PLATTE   CLOUDY    51  50  96 SE5       30.06S
IMPERIAL       FOG       50  49  96 CALM      30.05F VSB 1
LEXINGTON      FOG       55  54  97 E5        30.05F VSB 1/4
MCCOOK         FOG       53  52  96 NE5       30.04F VSB 3/4
OGALLALA       CLOUDY    49  49  98 E5        30.06S FOG
$$

NEZ005>010-023>029-035>040-094-051000-
NORTH CENTRAL NEBRASKA

CITY           SKY/WX    TMP DP  RH WIND       PRES   REMARKS
VALENTINE      CLOUDY    50  41  71 CALM      30.08F
AINSWORTH      CLOUDY    54  49  82 CALM      30.07F
BROKEN BOW     FOG       53  52  96 VRB3      30.05F VSB 1/2
O`NEILL        CLOUDY    54  50  87 NE5       30.07F
ORD            FOG       54  53  97 E3        30.04F VSB 1/2
THEDFORD       CLOUDY    52  50  93 CALM      30.07F FOG
$$

NEZ041-046>049-061>064-073>077-083>087-051000-
SOUTH CENTRAL NEBRASKA

CITY           SKY/WX    TMP DP  RH WIND       PRES   REMARKS
GRAND ISLAND   FOG       55  55 100 NE6       30.05F VSB 1/4
AURORA         FOG       56  56 100 NE5       30.04F VSB 1/4
HASTINGS       LGT RAIN  56  56 100 CALM      30.04F VSB 1/4
HEBRON         CLOUDY    61  57  85 S8        30.03F
HOLDREGE       FOG       55  54  97 E3        30.04F VSB 3/4
KEARNEY *      CLOUDY    54  52  94 E5        30.05F VSB 3/4
YORK           FOG       57  57 100 N5        30.04S VSB<1/4
$$

NEZ011>018-030>034-042>045-051000-
NORTHEAST NEBRASKA

CITY           SKY/WX    TMP DP  RH WIND       PRES   REMARKS
NORFOLK        RAIN      55  54  96 E5        30.06F FOG
ALBION         CLOUDY    54  52  94 NE5       30.06S FOG
BLAIR          FOG       56  55  94 N8        30.04S VSB 3/4
COLUMBUS *     CLOUDY    55  50  82 E6        30.06S
FREMONT        CLOUDY    57  56  95 CALM      30.05S FOG
TEKAMAH        CLOUDY    57  56  96 N8        30.05F FOG
WAYNE          CLOUDY    56  51  85 NE9       30.08F
$$

NEZ050>053-065>068-078-088>093-051000-
SOUTHEAST NEBRASKA

CITY           SKY/WX    TMP DP  RH WIND       PRES   REMARKS
LINCOLN        CLOUDY    61  59  93 CALM      30.03F
OMAHA EPPLEY   CLOUDY    58  57  97 N8        30.03F FOG
BEATRICE       CLOUDY    60  59  96 S7        30.03S
FALLS CITY     MOCLDY    61  61 100 S6        30.04F
NEBRASKA CITY  CLOUDY    60  59  98 SW6       30.04R
PLATTSMOUTH    CLOUDY    60  58  90 CALM      30.04R
$$

NEZ044-045-051>053-067-051000-
OMAHA AREA

CITY           SKY/WX    TMP DP  RH WIND       PRES   REMARKS
OMAHA EPPLEY   CLOUDY    58  57  97 N8        30.03F FOG
BLAIR          FOG       56  55  94 N8        30.04S VSB 3/4
FREMONT        CLOUDY    57  56  95 CALM      30.05S FOG
MILLARD        CLOUDY    60  59  96 CALM      30.03F FOG
OFFUTT AFB     CLOUDY    61  59  94 N2        30.03S
PLATTSMOUTH    CLOUDY    60  58  90 CALM      30.04R
$$



USA.gov is the U.S. government's official web portal to all federal, state and local government web resources and services.